Location: Brusselsch Zeekanaal
(50.8667°N, 4.3667°E)
Time: 11:54:46
(UTC+00:00)

Cosmos 2123 Rocket - Pass Details

Date: 08 November 2025
Orbit: 960 x 991 km, 82.9° (Epoch: 09 December)

Event Time Altitude Azimuth Distance (km) Brightness Sun altitude
Rises 05:35:43 0° 214° (SW) 3,660 6.8 -11.4°
Reaches altitude 10° 05:38:25 10° 222° (SW) 2,713 6.1 -11.0°
Maximum altitude 05:44:10 39° 290° (WNW) 1,427 4.4 -10.1°
Drops below altitude 10° 05:49:56 10° 358° (N) 2,713 6.2 -9.2°
Sets 05:52:38 0° 7° (N) 3,661 6.9 -8.8°
